If you wish to contribute or participate in the discussions about articles you are invited to join SKYbrary as a registered user

 Actions

Brazzaville/Maya-Maya Airport

From SKYbrary Wiki

FCBB
Airport
ICAO: FCBB – IATA: BZV
Summary
Name Brazzaville/Maya-Maya Airport
Region Africa
Territory Republic of the Congo CG.gif
Location Brazzaville, Brazzaville
Serving Brazzaville
Elevation 319.43 m
1,048 ft
1,048 ft319.43 m
Coordinates 4° 15' 20.00" S, 15° 14' 54.00" E
Runways
Designator Length Width Surface ROPS
5/23 3300 m10,826.772 ft
45 m147.638 ft
ASP yes/yes


METAR
Observation FCBB 061800Z 24004KT 7000 NSC 27/23 Q1013 NOSIG
Station Brazzaville / Maya-Maya
Date/Time 06 June 2020 18:00:00
Wind direction 240°
Wind speed 04 kts
Lowest cloud amount nil significant cloud
Temperature 27°C
Dew point 23°C
Humidity 78%
QNH 1013 hPa
Weather condition n/a

Maya-Maya Airport is an airport located in Brazzaville, the capital of the Republic of the Congo.

Maps

Terrain

Loading map...

Airport Layout

Loading map...


Accidents & Serious Incidents at or in vicinity of FCBB

None on SKYbrary